Regional Weather Roundup
Issued by NWS

Home | Current Version | Previous Version | Text Only | Print | Product List | Glossary Off
Versions: 1 2 3 4 5 6 7 8 9 10 11 12 13 14 15 16 17 18 19 20 21 22 23 24 25 26 27 28 29 30 31 32 33 34 35 36 37 38 39 40 41 42 43 44 45 46 47 48 49 50

000
ASUS43 KMKX 282100
RWRWI

WISCONSIN REGIONAL WEATHER ROUNDUP
NATIONAL WEATHER SERVICE MILWAUKEE/SULLIVAN WI
400 PM CDT FRI APR 28 2017

NOTE: "FAIR" INDICATES FEW OR NO CLOUDS BELOW 12,000 FEET WITH NO
SIGNIFICANT WEATHER AND/OR OBSTRUCTIONS TO VISIBILITY.

WIZ001-002-006>008-014>016-023>028-282200-
NORTHWEST WISCONSIN

CITY           SKY/WX    TMP DP  RH WIND       PRES   REMARKS
SUPERIOR ARPT  CLOUDY    52  28  39 NW16      29.92S
ASHLAND        CLOUDY    47  29  49 W10       29.94S
HAYWARD        CLOUDY    47  25  42 N7        29.92S
SIREN          CLOUDY    47  26  43 N9        29.94S
CUMBERLAND     CLOUDY    45  27  49 W7        29.93S
RICE LAKE      CLOUDY    46  30  53 W7        29.94F
CHETEK         NOT AVBL
LADYSMITH      CLOUDY    46  29  51 W6        29.94S
EAU CLAIRE     NOT AVBL
MENOMONIE      CLOUDY    48  28  45 NW6       29.94S
NEW RICHMOND   CLOUDY    46  28  49 N8        29.96R
OSCEOLA        CLOUDY    47  30  52 W7        29.98S
$$

WIZ003>005-009-010-017-018-282200-
NORTH CENTRAL WISCONSIN

CITY           SKY/WX    TMP DP  RH WIND       PRES   REMARKS
MANITOWISH WTR CLOUDY    37  28  70 W12       29.91  WCI  29
ARBOR VITAE    CLOUDY    39  28  63 NW10      29.90S WCI  32
WOODRUFF       CLOUDY    39  28  63 NW10      29.90S WCI  32
RHINELANDER    CLOUDY    44  29  55 W12       29.91S
EAGLE RIVER    CLOUDY    38  25  58 W7G16     29.90S WCI  33
LAND O LAKES   CLOUDY    40  26  57 W8        29.91R WCI  34
PHILLIPS       CLOUDY    41  28  60 W6        29.91R
TOMAHAWK       MOSUNNY   43  28  56 W8        29.91F
MEDFORD        PTSUNNY   43  29  58 W3        29.91S
MERRILL        PTSUNNY   45  29  53 NW5       29.92F
$$

WIZ029-030-035-036-043>047-282200-
CENTRAL WISCONSIN

CITY           SKY/WX    TMP DP  RH WIND       PRES   REMARKS
WAUSAU         CLOUDY    45  30  55 W9        29.90F
MOSINEE        CLOUDY    45  30  57 W7        29.92F
MARSHFIELD     CLOUDY    46  29  51 SW7       29.91S
STEVENS POINT  CLOUDY    44  29  57 W3        29.93S
WAUPACA        PTSUNNY   54  32  44 W8        29.92F
WAUTOMA        PTSUNNY   51  33  50 SW9       29.90F
WISC RAPIDS    CLOUDY    48  31  51 NW6       29.93S
CAMP DOUGLAS   NOT AVBL
$$

WIZ011>013-019>022-031-037>040-048>050-282200-
NORTHEAST WISCONSIN

CITY           SKY/WX    TMP DP  RH WIND       PRES   REMARKS
ANTIGO         CLOUDY    44  31  60 W8        29.90F
SHAWANO        CLOUDY    50  30  45 W5G16     29.91F
OCONTO         MOSUNNY   49  31  51 SW12      29.91F
STURGEON BAY   PTSUNNY   47  36  65 S5G16     29.93F
GREEN BAY      MOSUNNY   52  37  56 W10       29.91F
MANITOWOC      NOT AVBL
APPLETON       NOT AVBL
CLINTONVILLE   MOSUNNY   50  30  46 SW6       29.91F
OSHKOSH        MOSUNNY   51  35  54 VRB6      29.89F
$$

WIZ032>034-041-042-053>061-282200-
SOUTHWEST WISCONSIN

CITY           SKY/WX    TMP DP  RH WIND       PRES   REMARKS
LA CROSSE      CLOUDY    49  33  54 N5        29.91F
SPARTA         CLOUDY    48  33  55 NW6       29.92F
VIROQUA        CLOUDY    46  33  59 N6        29.90F
BOSCOBEL       LGT RAIN  51  32  48 NE6       29.89F
PRAIRIE DU CHI LGT RAIN  47  34  61 NW3       29.89S
PLATTEVILLE    CLOUDY    47  41  79 NE9       29.88S
$$

WIZ056-057-062-063-064-067-068-282200-
SOUTH CENTRAL WISCONSIN

CITY           SKY/WX    TMP DP  RH WIND       PRES   REMARKS
REEDSBURG      CLOUDY    48  32  53 NW3       29.89
BARABOO/DELLS  CLOUDY    49  32  51 NE5       29.89F
LONE ROCK      NOT AVBL
MINERAL POINT  CLOUDY    50  39  66 N6        29.88F
MADISON        CLOUDY    48  35  60 E3        29.89F
MIDDLETON      CLOUDY    49  37  63 CALM      29.90S
WATERTOWN      CLOUDY    50  37  61 CALM      29.89F
MONROE         LGT RAIN  45  41  87 NE10      29.86F
JANESVILLE     CLOUDY    54  43  66 NE6       29.87F
$$

WIZ051-052-058>065-066-070>072-282200-
SOUTHEAST WISCONSIN

CITY           SKY/WX    TMP DP  RH WIND       PRES   REMARKS
MILWAUKEE      CLOUDY    47  39  74 E9        29.90F
WAUKESHA       PTSUNNY   52  39  62 S3        29.90F
MILWAUKEE/TIMM PTSUNNY   50  36  57 E8        29.90F
RACINE         CLOUDY    47  39  74 SE5       29.92F
KENOSHA        CLOUDY    48  40  73 E7        29.89F
FOND DU LAC    PTSUNNY   51  35  54 CALM      29.89F
SHEBOYGAN      PTSUNNY   46  40  79 SE7       29.91F
WEST BEND      CLOUDY    54  34  47 W6        29.89F
JUNEAU         PTSUNNY   49  37  64 CALM      29.91F
$$

LSZ147-162-282200-
LAKE SUPERIOR

STATION/POSITION TIME  TEMP    WIND        PRES    WAVE
                       AIR SEA DIR/SP/G            HT/PER
                 (UTC) (F)     (DEG/KT/KT) (MB)    (FT/S)
DEVILS ISLAND    2000   38     230/ 21/ 23 1013.1R
SAXON HARBOR     2030   43     300/  7/ 14 1013.2S
$$

LMZ867-665-643>646-282200-
LAKE MICHIGAN

STATION/POSITION TIME  TEMP    WIND        PRES    WAVE
                       AIR SEA DIR/SP/G            HT/PER
                 (UTC) (F)     (DEG/KT/KT) (MB)    (FT/S)
CHAMBERS ISLAND  2040   46     160/  8/ 14 1013.2S
N MID LAKE BUOY  1950   38 37  190/ 10/ 14 1015.4R   3/ 6
NORTHPORT PIER   2040   46     170/  3/ 12 1013.5F
KEWAUNEE LAKESHO 2030   42     180/ 15/ 17 1013.4S
SHEBOYGAN LAKESH 2000   40     160/ 13/ 15 1014.1F
PORT WASHINGTON  2040   43     130/  4/  6 1014.2F
MILWAUKEE LAKESH 2030   42     120/  7/  9   N/A
S MID LAKE BUOY  1950   42 42   30/  6/  8 1014.3F   0
KENOSHA   LAKESH 2000   43      60/  3/  4 1013.2
$$

TC  - TEMPERATURE IN CELSIUS
VSB - VISIBILITY IN STATUTE MILES
WCI - WIND CHILL INDEX
HX  - HEAT INDEX




USA.gov is the U.S. government's official web portal to all federal, state and local government web resources and services.